Location: Splawn
(30.9202°N, 96.9858°W)
Time: 15:07:07
(UTC+00:00)

Transit 2A Rocket - Pass Details

Date: 08 March 2020
Orbit: 589 x 914 km, 66.7° (Epoch: 01 April)

Event Time Altitude Azimuth Distance (km) Brightness Sun altitude
Rises 09:30:35 0° 349° (N) 3,248 - -41.8°
Reaches altitude 10° 09:33:20 10° 3° (N) 2,375 - -41.3°
Maximum altitude 09:37:49 25° 58° (ENE) 1,640 - -40.4°
Exits shadow 09:38:42 24° 72° (ENE) 1,689 7.2 -40.2°
Drops below altitude 10° 09:42:32 10° 112° (ESE) 2,521 8.1 -39.5°
Sets 09:45:32 0° 125° (SE) 3,492 8.8 -38.9°
